Tracking 20083 objects as of 12-Dec-2019
HD Live streaming from Space Station
objects crossing your sky now

COSMOS 2251 DEB

Track COSMOS 2251 DEB now!
10-day predictions


NORAD ID: 37296
Int'l Code: 1993-036BJL
Perigee: 697.2 km
Apogee: 803.3 km
Inclination: 73.8 °
Period: 99.7 minutes
Semi major axis: 7121 km
RCS: 0.0071 m2 (small)
Launch date: June 16, 1993
Source: Commonwealth of Independent States (former USSR) (CIS)
Launch site: PLESETSK MISSILE AND SPACE COMPLEX (PKMTR)

Note: This is SATELLITE DEBRIS
aabbcc
Your satellite tracking list
Your tracking list is empty




NASA's NSSDC Master Catalog

Two Line Element Set (TLE):
1 37296U 93036BJL 19247.88475255  .00001350  00000-0  38458-3 0  9995
2 37296  73.8365  77.5203 0074503  84.3716 276.5930 14.44674783483312
Source of the keplerian elements: AFSPC